Location: Treviso
(45.6669°N, 12.2430°E)
Time: 10:05:56
(UTC+01:00)

ISS - Pass Details

Date: 29 November 2021
Orbit: 417 x 422 km, 51.6° (Epoch: 06 December)

Event Time Altitude Azimuth Distance (km) Brightness Sun altitude
Rises 18:41:28 0° 294° (WNW) 2,379 1.0 -22.4°
Reaches altitude 10° 18:43:42 10° 305° (NW) 1,513 -0.3 -22.8°
Enters shadow 18:45:32 24° 329° (NNW) 918 -1.9 -23.1°
